{"data":{"norad_id":53930,"epoch":"2026-05-25T04:00:03.998880Z","epoch_age_seconds":60363,"freshness":"FRESH","line1":"1 53930U 22119AW  26145.16671295  .00553197  00000+0  60795-2 0  9998","line2":"2 53930  53.2168 306.5999 0001017  71.5402 244.6138 15.60834960  5685","mean_motion":15.6083496,"eccentricity":0.0001017,"inclination_deg":53.2168,"raan_deg":306.5999,"arg_perigee_deg":71.5402,"mean_anomaly_deg":244.6138,"bstar":0.0060795,"rev_number":568,"period_min":92.258312819954,"perigee_km":384.55614707504,"apogee_km":385.93181876696,"semimajor_km":6763.380982921,"source":"CELESTRAK","updated_at":"2026-05-25T13:38:17.615311Z"}}